Change the Weather History Date:

Saturday, December 22, 2012

  Actual Average Record
Temperature  
Mean Temperature 29 °F 31 °F  
Max Temperature 34 °F 39 °F 70 °F (2013)
Min Temperature 24 °F 23 °F -16 °F (1989)
Degree Days  
Heating Degree Days 36 34  
Month to date heating degree days 505 688  
Since 1 July heating degree days 1778 1846  
Cooling Degree Days 0 0  
Month to date cooling degree days 0 0  
Year to date cooling degree days 981 697  
Moisture  
Dew Point 21 °F    
Average Humidity 67    
Maximum Humidity 75    
Minimum Humidity 59    
Precipitation  
Precipitation T in 0.10 in 0.77 in (1983)
Month to date precipitation 3.40 1.93  
Year to date precipitation 31.72 38.16  
Sea Level Pressure  
Sea Level Pressure 30.05 in    
Wind  
Wind Speed 10 mph (West)    
Max Wind Speed 24 mph    
Max Gust Speed 36 mph    
Visibility 10 miles    
Events Snow    
T = Trace of Precipitation, MM = Missing Value Source: NWS Daily Summary

Daily Weather History Graph

Daily Weather History Graph

Search for Another Location

Airport or City:

Trip Planner

Search our weather history database for the weather conditions in past years. The results will help you decide how hot, cold, wet, or windy it might be!

Date:

Astronomy

Dec. 22, 2012 Rise Set
Actual Time 7:46 AM EST 5:03 PM EST
Civil Twilight 7:15 AM EST 5:33 PM EST
Nautical Twilight 6:40 AM EST 6:08 PM EST
Astronomical Twilight 6:07 AM EST 6:41 PM EST
Moon 1:20 PM EST (12/22) 2:29 AM EST (12/22)
Length of Visible Light 10h 18m
Length of Day
9h 16m
Waxing Gibbous, 73% of the Moon is Illuminated
Dec 22
Waxing Gibbous
Dec 28
Full
Jan 4
Last Quarter
Jan 11
New
Jan 18
First Quarter

Hourly Weather History & Observations

Time (EST) Temp. Windchill Dew Point Humidity Pressure Visibility Wind Dir Wind Speed Gust Speed Precip Events Conditions
12:40 AM 33.8 °F 24.3 °F 24.8 °F 70% 29.80 in 10.0 mi WNW 13.8 mph 20.7 mph 0.00 in Snow Light Snow
12:53 AM 33.1 °F 21.9 °F 24.1 °F 70% 29.83 in 9.0 mi WNW 18.4 mph 25.3 mph 0.00 in   Overcast
1:53 AM 33.1 °F 22.6 °F 21.9 °F 64% 29.87 in 10.0 mi WNW 16.1 mph 26.5 mph 0.00 in   Overcast
2:53 AM 33.1 °F 23.4 °F 21.9 °F 64% 29.91 in 10.0 mi WNW 13.8 mph 26.5 mph 0.00 in   Overcast
3:53 AM 32.0 °F 20.8 °F 21.0 °F 64% 29.94 in 10.0 mi WNW 17.3 mph 26.5 mph N/A   Overcast
4:53 AM 32.0 °F 22.1 °F 21.0 °F 64% 29.96 in 10.0 mi WNW 13.8 mph - N/A   Overcast
5:53 AM 32.0 °F 24.2 °F 21.0 °F 64% 29.99 in 10.0 mi WNW 9.2 mph 19.6 mph N/A   Overcast
6:53 AM 32.0 °F 22.1 °F 19.9 °F 61% 30.02 in 10.0 mi WNW 13.8 mph 20.7 mph N/A   Overcast
7:53 AM 32.0 °F 21.6 °F 21.0 °F 64% 30.04 in 10.0 mi WNW 15.0 mph 23.0 mph N/A   Overcast
8:45 AM 32.0 °F 24.8 °F 21.2 °F 64% 30.03 in 10.0 mi West 8.1 mph - N/A   Overcast
8:53 AM 32.0 °F 24.2 °F 21.9 °F 66% 30.06 in 10.0 mi WNW 9.2 mph - N/A   Overcast
9:43 AM 32.0 °F 22.5 °F 19.4 °F 60% 30.06 in 10.0 mi NW 12.7 mph 25.3 mph N/A   Overcast
9:53 AM 32.0 °F 22.1 °F 19.9 °F 61% 30.09 in 10.0 mi WNW 13.8 mph 21.9 mph N/A   Overcast
10:16 AM 32.0 °F 23.0 °F 21.2 °F 64% 30.07 in 10.0 mi WNW 11.5 mph - N/A   Overcast
10:53 AM 32.0 °F 22.1 °F 21.0 °F 64% 30.12 in 10.0 mi WNW 13.8 mph 21.9 mph N/A   Overcast
11:53 AM 32.0 °F 23.0 °F 21.9 °F 66% 30.11 in 10.0 mi WNW 11.5 mph 18.4 mph N/A   Overcast
12:53 PM 32.0 °F 24.2 °F 21.0 °F 64% 30.09 in 10.0 mi West 9.2 mph - N/A   Overcast
1:53 PM 32.0 °F 23.0 °F 21.0 °F 64% 30.11 in 10.0 mi West 11.5 mph 19.6 mph N/A   Overcast
2:25 PM 32.0 °F 23.0 °F 19.4 °F 60% 30.08 in 10.0 mi WNW 11.5 mph 19.6 mph N/A   Overcast
2:53 PM 33.1 °F 24.9 °F 21.0 °F 61% 30.10 in 10.0 mi WSW 10.4 mph - N/A   Overcast
3:02 PM 33.8 °F 27.7 °F 21.2 °F 60% 30.07 in 10.0 mi West 6.9 mph - N/A   Overcast
3:53 PM 32.0 °F 24.2 °F 21.9 °F 66% 30.11 in 10.0 mi West 9.2 mph 17.3 mph N/A   Overcast
4:37 PM 32.0 °F 25.6 °F 21.2 °F 64% 30.09 in 10.0 mi West 6.9 mph - N/A   Overcast
4:53 PM 32.0 °F 25.6 °F 21.0 °F 64% 30.12 in 10.0 mi WSW 6.9 mph - N/A   Overcast
5:00 PM 32.0 °F 23.6 °F 21.2 °F 64% 30.09 in 10.0 mi WSW 10.4 mph - N/A   Overcast
5:53 PM 30.9 °F 24.3 °F 19.9 °F 64% 30.12 in 10.0 mi SW 6.9 mph - N/A   Overcast
6:53 PM 30.0 °F 24.1 °F 19.9 °F 66% 30.13 in 10.0 mi WSW 5.8 mph - N/A   Overcast
7:53 PM 30.0 °F 21.7 °F 19.9 °F 66% 30.15 in 10.0 mi SW 9.2 mph - N/A   Overcast
8:35 PM 28.4 °F 23.3 °F 19.4 °F 69% 30.12 in 10.0 mi West 4.6 mph - N/A   Scattered Clouds
8:53 PM 28.0 °F 20.8 °F 19.0 °F 69% 30.14 in 10.0 mi WSW 6.9 mph - N/A   Clear
9:53 PM 27.0 °F 23.0 °F 19.0 °F 72% 30.13 in 10.0 mi SW 3.5 mph - N/A   Clear
10:53 PM 26.1 °F - 19.0 °F 75% 30.13 in 10.0 mi Calm Calm - N/A   Clear
11:53 PM 25.0 °F - 19.0 °F 78% 30.11 in 10.0 mi Calm Calm - N/A   Clear